Tracking 30160 objects as of 14-Feb-2025
HD Live streaming from Space Station
objects crossing your sky now

ATLAS 5 CENTAUR DEB

Track ATLAS 5 CENTAUR DEB now!


NORAD ID: 43994
Int'l Code: 2014-055AZ
Perigee: 8,929.2 km
Apogee: 35,214.1 km
Inclination: 19.9 °
Period: 795.6 minutes
Semi major axis: 28442 km
RCS: Unknown
Launch date: September 17, 2014
Source: United States (US)
Launch site: AIR FORCE EASTERN TEST RANGE (AFETR)

Note: This is SATELLITE DEBRIS
Your satellite tracking list
Your tracking list is empty




NASA's NSSDC Master Catalog

Two Line Element Set (TLE):
1 43994U 14055AZ  25043.65931271 -.00000036  00000-0  00000-0 0  9992
2 43994  19.9271 223.4524 4620683  29.9064 349.9477  1.80987103 41961
Source of the keplerian elements: AFSPC